Evansville, IN

11:56 PM CDT on June 27, 2017 (GMT -0500)
Evansville Regional

Weather History for KEVV - February, 2014

Change the Weather History Date:

Tuesday, February 4, 2014

  Actual Average Record
Temperature  
Mean Temperature 28 °F 34 °F  
Max Temperature 33 °F 43 °F 77 °F (1962)
Min Temperature 23 °F 25 °F -8 °F (1966)
Degree Days  
Heating Degree Days 37 31  
Month to date heating degree days 124 125  
Since 1 July heating degree days 3100 2904  
Cooling Degree Days 0 0  
Month to date cooling degree days 0 0  
Year to date cooling degree days 0 0  
Moisture  
Dew Point 26 °F    
Average Humidity 78    
Maximum Humidity 92    
Minimum Humidity 63    
Precipitation  
Precipitation 0.72 in 0.13 in 1.14 in (1921)
Month to date precipitation 1.63 0.49  
Year to date precipitation 3.32 3.59  
Snow  
Snow 1.80 in 0.20 in 1.80 in (2014)
Month to date snowfall 1.8 0.6  
Since 1 July snowfall 9.6 7.5  
Snow Depth 2.00 in    
Sea Level Pressure  
Sea Level Pressure 30.05 in    
Wind  
Wind Speed 9 mph (NE)    
Max Wind Speed 20 mph    
Max Gust Speed 25 mph    
Visibility 4 miles    
Events Fog , Rain , Snow    
T = Trace of Precipitation, MM = Missing Value Source: NWS Daily Summary

Daily Weather History Graph

Daily Weather History Graph

Search for Another Location

Airport or City:

Trip Planner

Search our weather history database for the weather conditions in past years. The results will help you decide how hot, cold, wet, or windy it might be!

Date:

Astronomy

Feb. 04, 2014 Rise Set
Actual Time 6:51 AM CST 5:16 PM CST
Civil Twilight 6:24 AM CST 5:44 PM CST
Nautical Twilight 5:53 AM CST 6:15 PM CST
Astronomical Twilight 5:22 AM CST 6:46 PM CST
Moon 9:35 AM CST (2/4) 11:03 PM CST (2/4)
Length of Visible Light 11h 19m
Length of Day
10h 24m
Waxing Crescent, 29% of the Moon is Illuminated
Feb 4
Waxing Crescent
Feb 6
First Quarter
Feb 14
Full
Feb 22
Last Quarter
Mar 1
New

Hourly Weather History & Observations

Time (CST) Temp. Windchill Dew Point Humidity Pressure Visibility Wind Dir Wind Speed Gust Speed Precip Events Conditions
12:54 AM 25.0 °F 20.7 °F 19.9 °F 81% 30.32 in 9.0 mi NNE 3.5 mph - N/A   Clear
1:54 AM 25.0 °F 19.3 °F 19.9 °F 81% 30.33 in 8.0 mi NE 4.6 mph - N/A   Clear
2:54 AM 26.1 °F 17.6 °F 21.0 °F 81% 30.30 in 8.0 mi ENE 8.1 mph - N/A   Clear
3:54 AM 26.1 °F 20.5 °F 21.0 °F 81% 30.29 in 8.0 mi East 4.6 mph - N/A   Clear
4:54 AM 27.0 °F - 21.0 °F 78% 30.35 in 9.0 mi Calm Calm - N/A   Clear
5:54 AM 27.0 °F 18.0 °F 21.0 °F 78% 30.30 in 8.0 mi NE 9.2 mph - N/A   Clear
6:54 AM 27.0 °F 20.5 °F 21.0 °F 78% 30.33 in 7.0 mi NE 5.8 mph - N/A   Clear
7:54 AM 28.0 °F 19.3 °F 21.9 °F 78% 30.29 in 6.0 mi ENE 9.2 mph - N/A   Haze
8:54 AM 30.0 °F 22.4 °F 23.0 °F 75% 30.29 in 8.0 mi ENE 8.1 mph - N/A   Clear
9:54 AM 30.9 °F 21.2 °F 23.0 °F 72% 30.24 in 9.0 mi ENE 12.7 mph - N/A   Clear
10:54 AM 32.0 °F 24.8 °F 21.9 °F 66% 30.26 in 10.0 mi NE 8.1 mph - N/A   Partly Cloudy
11:54 AM 32.0 °F 26.4 °F 21.0 °F 64% 30.23 in 10.0 mi ENE 5.8 mph - N/A   Overcast
12:54 PM 32.0 °F 25.6 °F 21.0 °F 64% 30.20 in 10.0 mi NE 6.9 mph - N/A   Overcast
1:37 PM 30.9 °F 19.4 °F 23.0 °F 72% 30.08 in 1.8 mi NE 17.3 mph - 0.00 in Snow Light Snow
1:43 PM 30.0 °F 18.7 °F 24.1 °F 79% 30.08 in 0.8 mi NE 16.1 mph - 0.00 in Snow Light Snow
1:51 PM 28.4 °F 16.6 °F 24.8 °F 86% 30.09 in 0.2 mi NE 16.1 mph - 0.00 in Fog , Snow Snow
1:54 PM 28.9 °F 18.2 °F 25.0 °F 85% 30.12 in 0.2 mi NE 13.8 mph - 0.02 in Fog , Snow Snow
2:07 PM 28.9 °F 18.6 °F 26.1 °F 89% 30.09 in 0.5 mi NE 12.7 mph - 0.02 in Fog , Snow Snow
2:28 PM 28.9 °F 17.3 °F 25.0 °F 85% 30.04 in 0.8 mi ENE 16.1 mph - 0.06 in Snow Light Snow
2:34 PM 28.9 °F 17.7 °F 25.0 °F 85% 30.03 in 1.0 mi ENE 15.0 mph - 0.08 in Snow Light Snow
2:40 PM 28.9 °F 18.2 °F 26.1 °F 89% 30.03 in 2.0 mi ENE 13.8 mph - 0.09 in Snow Light Snow
2:52 PM 28.4 °F 16.2 °F 24.8 °F 86% 30.01 in 2.5 mi ENE 17.3 mph 23.0 mph 0.10 in Snow Light Snow
2:54 PM 28.9 °F 16.5 °F 25.0 °F 85% 30.01 in 2.0 mi NE 18.4 mph - 0.10 in Snow Light Snow
3:08 PM 28.9 °F 16.9 °F 26.1 °F 89% 29.99 in 3.0 mi ENE 17.3 mph - 0.02 in Rain Light Freezing Rain
3:24 PM 30.0 °F 21.7 °F 26.1 °F 85% 30.04 in 3.0 mi ENE 9.2 mph - 0.04 in Rain Light Freezing Rain
3:39 PM 30.0 °F 20.5 °F 27.0 °F 88% 30.03 in 2.5 mi NE 11.5 mph - 0.08 in Rain Light Freezing Rain
3:51 PM 30.2 °F 20.2 °F 26.6 °F 86% 30.03 in 1.8 mi NE 12.7 mph - 0.13 in Rain Light Freezing Rain
3:54 PM 30.0 °F 20.0 °F 27.0 °F 88% 30.04 in 2.0 mi NE 12.7 mph - 0.14 in Rain Light Freezing Rain
3:58 PM 30.0 °F 19.5 °F 27.0 °F 88% 30.01 in 2.0 mi NE 13.8 mph - 0.00 in Snow Light Snow
4:03 PM 30.0 °F 19.5 °F 27.0 °F 88% 30.00 in 1.8 mi NE 13.8 mph - 0.02 in Snow Light Snow
4:14 PM 30.9 °F 20.2 °F 27.0 °F 85% 29.99 in 2.0 mi NE 15.0 mph - 0.06 in   Overcast
4:29 PM 30.0 °F 20.0 °F 28.0 °F 92% 29.98 in 1.8 mi NNE 12.7 mph - 0.08 in   Overcast
4:37 PM 30.0 °F 20.0 °F 28.0 °F 92% 29.96 in 1.5 mi NE 12.7 mph - 0.10 in Rain Light Freezing Rain
4:54 PM 30.0 °F 19.1 °F 27.0 °F 88% 29.97 in 1.8 mi NE 15.0 mph 21.9 mph 0.14 in Rain Light Freezing Rain
5:05 PM 30.0 °F 21.1 °F 27.0 °F 88% 29.97 in 2.0 mi NNE 10.4 mph - 0.02 in Rain Light Freezing Rain
5:19 PM 30.0 °F 19.5 °F 27.0 °F 88% 29.97 in 3.0 mi NNE 13.8 mph - 0.04 in Rain Light Freezing Rain
5:54 PM 30.9 °F 21.2 °F 27.0 °F 85% 29.98 in 4.0 mi NE 12.7 mph 21.9 mph 0.09 in Rain Light Freezing Rain
6:50 PM 30.2 °F 19.8 °F 28.4 °F 93% 29.97 in 5.0 mi NE 13.8 mph - 0.08 in   Overcast
6:54 PM 30.9 °F 20.2 °F 28.0 °F 89% 29.99 in 5.0 mi ENE 15.0 mph - 0.08 in   Overcast
7:01 PM 30.9 °F 21.7 °F 28.0 °F 89% 29.97 in 4.0 mi NE 11.5 mph - 0.01 in Rain Light Freezing Rain
7:54 PM 32.0 °F 22.5 °F 28.9 °F 88% 29.93 in 5.0 mi ENE 12.7 mph 21.9 mph 0.10 in Rain Light Freezing Rain
8:08 PM 32.0 °F 23.0 °F 28.9 °F 88% 29.88 in 4.0 mi ENE 11.5 mph - 0.01 in Rain Light Freezing Rain
8:29 PM 32.0 °F 22.1 °F 28.9 °F 88% 29.84 in 5.0 mi East 13.8 mph 20.7 mph 0.03 in Rain Light Freezing Rain
8:54 PM 32.0 °F 22.5 °F 30.0 °F 92% 29.86 in 7.0 mi NE 12.7 mph - 0.04 in Rain Light Freezing Rain
9:29 PM 32.0 °F 25.6 °F 30.0 °F 92% 29.84 in 7.0 mi NNE 6.9 mph - 0.00 in   Overcast
9:54 PM 32.0 °F 24.8 °F 30.0 °F 92% 29.85 in 8.0 mi NNE 8.1 mph - 0.00 in   Overcast
10:39 PM 32.0 °F 28.7 °F 30.0 °F 92% 29.86 in 2.5 mi NNE 3.5 mph - 0.00 in Rain Light Freezing Rain
10:54 PM 32.0 °F 28.7 °F 30.0 °F 92% 29.87 in 1.5 mi NE 3.5 mph - 0.01 in Rain Light Freezing Rain
11:11 PM 32.0 °F 27.5 °F 30.0 °F 92% 29.84 in 2.0 mi NE 4.6 mph - 0.00 in   Overcast
11:36 PM 32.0 °F 27.5 °F 30.0 °F 92% 29.83 in 3.0 mi NE 4.6 mph - 0.00 in   Overcast
11:54 PM 32.0 °F 28.7 °F 30.0 °F 92% 29.83 in 3.0 mi NNE 3.5 mph - 0.00 in   Overcast